Time,TemperatureF,DewpointF,PressureIn,WindDirection,WindDirectionDegrees,WindSpeedMPH,WindSpeedGustMPH,Humidity,HourlyPrecipIn,Conditions,Clouds,dailyrainin,SoftwareType,DateUTC
2013-06-07 00:01:00,65.1,65.1,28.30,West,270,0.0,0.0,100,0.00,CLR,CLR,0.00,WeatherDisplay:10.37,2013-06-07 04:01:00,
2013-06-07 00:02:00,65.1,65.1,28.30,West,270,0.0,0.0,100,0.00,CLR,CLR,0.00,WeatherDisplay:10.37,2013-06-07 04:02:00,
2013-06-07 00:03:00,65.1,65.1,28.30,West,270,0.0,0.0,100,0.00,CLR,CLR,0.00,WeatherDisplay:10.37,2013-06-07 04:03:00,
2013-06-07 00:05:00,65.1,65.1,28.30,West,270,1.0,1.0,100,0.00,CLR,CLR,0.00,WeatherDisplay:10.37,2013-06-07 04:05:00,
2013-06-07 00:11:00,65.1,65.1,28.30,West,271,2.3,2.3,100,0.00,CLR,CLR,0.00,WeatherDisplay:10.37,2013-06-07 04:11:00,
2013-06-07 00:16:00,65.1,65.1,28.30,West,270,0.0,0.0,100,0.00,CLR,CLR,0.00,WeatherDisplay:10.37,2013-06-07 04:16:00,
2013-06-07 00:21:00,65.1,65.1,28.30,West,270,0.0,0.0,100,0.00,CLR,CLR,0.00,WeatherDisplay:10.37,2013-06-07 04:21:00,
2013-06-07 00:26:00,65.1,65.1,28.29,West,270,0.0,0.0,100,0.00,CLR,CLR,0.00,WeatherDisplay:10.37,2013-06-07 04:26:00,
2013-06-07 00:31:00,65.1,65.1,28.29,West,270,0.0,0.0,100,0.00,CLR,CLR,0.00,WeatherDisplay:10.37,2013-06-07 04:31:00,
2013-06-07 00:36:00,65.1,65.1,28.29,West,270,0.0,0.0,100,0.00,CLR,CLR,0.00,WeatherDisplay:10.37,2013-06-07 04:36:00,
2013-06-07 00:42:00,65.1,65.1,28.29,West,270,0.0,0.0,100,0.00,CLR,CLR,0.00,WeatherDisplay:10.37,2013-06-07 04:42:00,
2013-06-07 00:47:00,65.2,65.2,28.29,West,270,0.0,0.0,100,0.02,RA,RA,0.03,WeatherDisplay:10.37,2013-06-07 04:47:00,
2013-06-07 00:52:00,65.1,65.1,28.29,West,270,0.0,0.0,100,0.04,RA,RA,0.04,WeatherDisplay:10.37,2013-06-07 04:52:00,
2013-06-07 00:57:00,65.1,65.1,28.29,West,270,0.0,0.0,100,0.05,RA,RA,0.06,WeatherDisplay:10.37,2013-06-07 04:57:00,
2013-06-07 01:02:00,65.2,65.2,28.29,WSW,245,4.6,4.6,100,0.08,RA,RA,0.08,WeatherDisplay:10.37,2013-06-07 05:02:00,
2013-06-07 01:07:00,65.2,65.2,28.29,SW,220,4.0,4.0,100,0.11,RA,RA,0.11,WeatherDisplay:10.37,2013-06-07 05:07:00,
2013-06-07 01:12:00,65.3,65.3,28.29,SW,218,2.3,2.3,100,0.13,RA,RA,0.13,WeatherDisplay:10.37,2013-06-07 05:12:00,
2013-06-07 01:17:00,65.3,65.3,28.29,South,171,1.2,1.2,100,0.15,RA,RA,0.15,WeatherDisplay:10.37,2013-06-07 05:17:00,
2013-06-07 01:22:00,65.4,65.4,28.28,South,171,2.0,2.0,100,0.16,RA,RA,0.16,WeatherDisplay:10.37,2013-06-07 05:22:00,
2013-06-07 01:27:00,65.4,65.4,28.28,South,172,3.5,3.5,100,0.17,RA,RA,0.17,WeatherDisplay:10.37,2013-06-07 05:27:00,
2013-06-07 01:33:00,65.5,65.5,28.28,South,180,1.2,1.2,100,0.18,RA,RA,0.18,WeatherDisplay:10.37,2013-06-07 05:33:00,
2013-06-07 01:38:00,65.5,65.5,28.28,South,180,3.5,3.5,100,0.19,RA,RA,0.19,WeatherDisplay:10.37,2013-06-07 05:38:00,
2013-06-07 01:43:00,65.5,65.5,28.28,South,179,1.2,0.0,100,0.20,RA,RA,0.20,WeatherDisplay:10.37,2013-06-07 05:43:00,
2013-06-07 01:48:00,65.6,65.6,28.28,South,180,1.0,1.0,100,0.17,RA,RA,0.20,WeatherDisplay:10.37,2013-06-07 05:48:00,
2013-06-07 01:53:00,65.6,65.6,28.28,South,180,0.0,0.0,100,0.16,CLR,CLR,0.20,WeatherDisplay:10.37,2013-06-07 05:53:00,
2013-06-07 01:58:00,65.7,65.7,28.27,South,183,2.3,2.3,100,0.14,CLR,CLR,0.20,WeatherDisplay:10.37,2013-06-07 05:58:00,
2013-06-07 02:03:00,65.7,65.7,28.27,South,183,0.0,0.0,100,0.11,CLR,CLR,0.20,WeatherDisplay:10.37,2013-06-07 06:03:00,
2013-06-07 02:08:00,65.7,65.7,28.27,SE,142,3.5,3.5,100,0.09,CLR,CLR,0.20,WeatherDisplay:10.37,2013-06-07 06:08:00,
2013-06-07 02:13:00,65.7,65.7,28.27,South,187,6.9,6.9,100,0.07,CLR,CLR,0.20,WeatherDisplay:10.37,2013-06-07 06:13:00,
2013-06-07 02:19:00,65.7,65.7,28.27,South,187,1.2,1.2,100,0.05,CLR,CLR,0.20,WeatherDisplay:10.37,2013-06-07 06:19:00,
2013-06-07 02:24:00,65.6,65.6,28.27,SSE,158,2.0,2.0,100,0.04,CLR,CLR,0.20,WeatherDisplay:10.37,2013-06-07 06:24:00,
2013-06-07 02:29:00,65.6,65.6,28.27,SSE,155,3.5,3.5,100,0.04,RA,RA,0.21,WeatherDisplay:10.37,2013-06-07 06:29:00,
2013-06-07 02:34:00,65.6,65.6,28.26,SSE,155,1.0,1.0,100,0.02,RA,RA,0.21,WeatherDisplay:10.37,2013-06-07 06:34:00,
2013-06-07 02:39:00,65.6,65.6,28.26,SSE,155,2.3,2.3,100,0.01,CLR,CLR,0.21,WeatherDisplay:10.37,2013-06-07 06:39:00,
2013-06-07 02:45:00,65.6,65.6,28.26,SSE,155,1.2,1.2,100,0.01,CLR,CLR,0.21,WeatherDisplay:10.37,2013-06-07 06:45:00,
2013-06-07 02:50:00,65.6,65.6,28.26,SSE,155,2.3,2.3,100,0.01,CLR,CLR,0.21,WeatherDisplay:10.37,2013-06-07 06:50:00,
2013-06-07 02:55:00,65.6,65.6,28.25,SSE,155,2.3,0.0,100,0.01,CLR,CLR,0.21,WeatherDisplay:10.37,2013-06-07 06:55:00,
2013-06-07 03:00:00,65.6,65.6,28.25,SSE,155,2.3,2.3,100,0.01,CLR,CLR,0.21,WeatherDisplay:10.37,2013-06-07 07:00:00,
2013-06-07 03:05:00,65.6,65.6,28.25,SSE,164,3.5,3.5,100,0.02,RA,RA,0.22,WeatherDisplay:10.37,2013-06-07 07:05:00,
2013-06-07 03:10:00,65.5,65.5,28.25,SSE,163,0.0,0.0,100,0.02,RA,RA,0.22,WeatherDisplay:10.37,2013-06-07 07:10:00,
2013-06-07 03:15:00,65.5,65.5,28.25,SSE,164,4.0,4.0,100,0.02,CLR,CLR,0.22,WeatherDisplay:10.37,2013-06-07 07:15:00,
2013-06-07 03:20:00,65.4,65.4,28.25,SSE,164,2.3,2.3,100,0.02,CLR,CLR,0.22,WeatherDisplay:10.37,2013-06-07 07:20:00,
2013-06-07 03:26:00,65.4,65.4,28.24,SSE,164,0.0,0.0,100,0.01,CLR,CLR,0.22,WeatherDisplay:10.37,2013-06-07 07:26:00,
2013-06-07 03:31:00,65.3,65.3,28.24,SSE,164,2.3,2.3,100,0.01,CLR,CLR,0.22,WeatherDisplay:10.37,2013-06-07 07:31:00,
2013-06-07 03:36:00,65.2,65.2,28.24,SSE,164,0.0,0.0,100,0.01,CLR,CLR,0.22,WeatherDisplay:10.37,2013-06-07 07:36:00,
2013-06-07 03:41:00,65.2,65.2,28.23,SSE,164,0.0,0.0,100,0.01,CLR,CLR,0.22,WeatherDisplay:10.37,2013-06-07 07:41:00,
2013-06-07 03:46:00,65.2,65.2,28.23,SSE,164,0.0,0.0,100,0.01,CLR,CLR,0.22,WeatherDisplay:10.37,2013-06-07 07:46:00,
2013-06-07 03:51:00,65.2,65.2,28.23,SSE,164,2.3,0.0,100,0.02,RA,RA,0.23,WeatherDisplay:10.37,2013-06-07 07:51:00,
2013-06-07 03:57:00,65.2,65.2,28.23,SSE,164,2.3,2.3,100,0.02,RA,RA,0.23,WeatherDisplay:10.37,2013-06-07 07:57:00,
2013-06-07 04:02:00,65.1,65.1,28.22,SSE,164,1.2,0.0,100,0.01,CLR,CLR,0.23,WeatherDisplay:10.37,2013-06-07 08:02:00,
2013-06-07 04:07:00,65.1,65.1,28.22,SSE,164,2.3,0.0,100,0.01,CLR,CLR,0.23,WeatherDisplay:10.37,2013-06-07 08:07:00,
2013-06-07 04:12:00,65.1,65.1,28.22,SSE,164,2.3,2.3,100,0.02,RA,RA,0.24,WeatherDisplay:10.37,2013-06-07 08:12:00,
2013-06-07 04:18:00,65.0,65.0,28.22,SSE,165,1.2,1.2,100,0.02,RA,RA,0.24,WeatherDisplay:10.37,2013-06-07 08:18:00,
2013-06-07 04:23:00,65.0,65.0,28.22,SSE,165,1.2,1.2,100,0.02,CLR,CLR,0.25,WeatherDisplay:10.37,2013-06-07 08:23:00,
2013-06-07 04:28:00,64.9,64.9,28.21,SSE,165,1.2,1.2,100,0.03,RA,RA,0.25,WeatherDisplay:10.37,2013-06-07 08:28:00,
2013-06-07 04:33:00,64.9,64.9,28.21,SSE,165,1.2,1.2,100,0.03,RA,RA,0.25,WeatherDisplay:10.37,2013-06-07 08:33:00,
2013-06-07 04:38:00,64.8,64.8,28.21,SSE,165,0.0,0.0,100,0.03,CLR,CLR,0.25,WeatherDisplay:10.37,2013-06-07 08:38:00,
2013-06-07 04:43:00,64.8,64.8,28.21,SSE,165,0.0,0.0,100,0.03,CLR,CLR,0.25,WeatherDisplay:10.37,2013-06-07 08:43:00,
2013-06-07 04:49:00,64.7,64.7,28.21,SSE,165,0.0,0.0,100,0.03,RA,RA,0.26,WeatherDisplay:10.37,2013-06-07 08:49:00,
2013-06-07 04:54:00,64.7,64.7,28.21,SSE,165,1.2,1.2,100,0.03,RA,RA,0.26,WeatherDisplay:10.37,2013-06-07 08:54:00,
2013-06-07 04:59:00,64.7,64.7,28.20,SSE,165,2.3,2.3,100,0.03,CLR,CLR,0.26,WeatherDisplay:10.37,2013-06-07 08:59:00,
2013-06-07 05:04:00,64.6,64.6,28.20,South,189,1.2,1.2,100,0.03,CLR,CLR,0.26,WeatherDisplay:10.37,2013-06-07 09:04:00,
2013-06-07 05:09:00,64.6,64.6,28.20,South,189,2.3,2.3,100,0.03,CLR,CLR,0.26,WeatherDisplay:10.37,2013-06-07 09:09:00,
2013-06-07 05:14:00,64.6,64.6,28.20,South,189,2.3,2.3,100,0.02,CLR,CLR,0.26,WeatherDisplay:10.37,2013-06-07 09:14:00,
2013-06-07 05:19:00,64.5,64.5,28.20,South,189,1.2,1.2,100,0.02,CLR,CLR,0.26,WeatherDisplay:10.37,2013-06-07 09:19:00,
2013-06-07 05:24:00,64.5,64.5,28.20,South,189,1.2,0.0,100,0.01,CLR,CLR,0.26,WeatherDisplay:10.37,2013-06-07 09:24:00,
2013-06-07 05:29:00,64.4,64.4,28.20,South,189,0.0,0.0,100,0.01,CLR,CLR,0.26,WeatherDisplay:10.37,2013-06-07 09:29:00,
2013-06-07 05:34:00,64.4,64.4,28.20,South,188,0.0,0.0,100,0.01,CLR,CLR,0.26,WeatherDisplay:10.37,2013-06-07 09:34:00,
2013-06-07 05:40:00,64.3,64.3,28.20,South,188,0.0,0.0,100,0.01,CLR,CLR,0.26,WeatherDisplay:10.37,2013-06-07 09:40:00,
2013-06-07 05:45:00,64.3,64.3,28.20,South,188,0.0,0.0,100,0.01,CLR,CLR,0.26,WeatherDisplay:10.37,2013-06-07 09:45:00,
2013-06-07 05:50:00,64.3,64.3,28.20,South,188,0.0,0.0,100,0.00,CLR,CLR,0.26,WeatherDisplay:10.37,2013-06-07 09:50:00,
2013-06-07 05:55:00,64.3,64.3,28.28,South,188,0.0,0.0,100,0.00,CLR,CLR,0.26,WeatherDisplay:10.37,2013-06-07 09:55:00,
2013-06-07 06:00:00,64.3,64.3,28.29,South,188,2.3,2.3,100,0.00,CLR,CLR,0.26,WeatherDisplay:10.37,2013-06-07 10:00:00,
2013-06-07 06:05:00,64.4,64.4,28.30,South,188,2.3,2.3,100,0.00,CLR,CLR,0.26,WeatherDisplay:10.37,2013-06-07 10:05:00,
2013-06-07 06:11:00,64.5,64.5,28.28,South,186,3.0,3.0,100,0.00,CLR,CLR,0.26,WeatherDisplay:10.37,2013-06-07 10:11:00,
2013-06-07 06:16:00,64.5,64.5,28.30,South,187,2.3,2.3,100,0.00,CLR,CLR,0.26,WeatherDisplay:10.37,2013-06-07 10:16:00,
2013-06-07 06:21:00,64.5,64.5,28.29,South,186,5.0,5.0,100,0.00,CLR,CLR,0.26,WeatherDisplay:10.37,2013-06-07 10:21:00,
2013-06-07 06:26:00,64.6,64.6,28.30,NNE,13,3.0,3.0,100,0.00,CLR,CLR,0.26,WeatherDisplay:10.37,2013-06-07 10:26:00,
2013-06-07 06:32:00,64.6,64.6,28.29,NNE,14,2.3,2.3,100,0.00,CLR,CLR,0.26,WeatherDisplay:10.37,2013-06-07 10:32:00,
2013-06-07 06:37:00,64.6,64.6,28.30,NNE,14,0.0,0.0,100,0.00,CLR,CLR,0.26,WeatherDisplay:10.37,2013-06-07 10:37:00,
2013-06-07 06:42:00,64.7,64.7,28.30,NNE,14,0.0,0.0,100,0.00,CLR,CLR,0.26,WeatherDisplay:10.37,2013-06-07 10:42:00,
2013-06-07 06:47:00,64.7,64.7,28.29,NNE,14,1.2,1.2,100,0.00,CLR,CLR,0.26,WeatherDisplay:10.37,2013-06-07 10:47:00,
2013-06-07 06:52:00,64.8,64.8,28.29,NNE,14,2.3,2.3,100,0.00,CLR,CLR,0.26,WeatherDisplay:10.37,2013-06-07 10:52:00,
2013-06-07 06:58:00,64.8,64.8,28.29,North,355,3.5,3.5,100,0.00,CLR,CLR,0.26,WeatherDisplay:10.37,2013-06-07 10:58:00,
2013-06-07 07:03:00,64.8,64.8,28.29,North,355,2.3,2.3,100,0.00,CLR,CLR,0.26,WeatherDisplay:10.37,2013-06-07 11:03:00,
2013-06-07 07:08:00,64.9,64.9,28.29,West,266,3.5,3.5,100,0.00,CLR,CLR,0.26,WeatherDisplay:10.37,2013-06-07 11:08:00,
2013-06-07 07:13:00,65.0,65.0,28.30,West,267,3.5,3.5,100,0.00,CLR,CLR,0.26,WeatherDisplay:10.37,2013-06-07 11:13:00,
2013-06-07 07:18:00,65.0,65.0,28.28,West,267,1.2,1.2,100,0.00,CLR,CLR,0.26,WeatherDisplay:10.37,2013-06-07 11:18:00,
2013-06-07 07:23:00,65.1,65.1,28.28,West,267,3.5,3.5,100,0.00,CLR,CLR,0.26,WeatherDisplay:10.37,2013-06-07 11:23:00,
2013-06-07 07:29:00,65.1,65.1,28.28,West,268,3.5,3.5,100,0.00,CLR,CLR,0.26,WeatherDisplay:10.37,2013-06-07 11:29:00,
2013-06-07 07:34:00,65.2,65.2,28.28,West,268,2.0,2.0,100,0.00,CLR,CLR,0.26,WeatherDisplay:10.37,2013-06-07 11:34:00,
2013-06-07 07:39:00,65.2,65.2,28.27,West,268,2.3,2.3,100,0.00,CLR,CLR,0.26,WeatherDisplay:10.37,2013-06-07 11:39:00,
2013-06-07 07:44:00,65.4,65.4,28.27,West,268,3.5,3.5,100,0.00,CLR,CLR,0.26,WeatherDisplay:10.37,2013-06-07 11:44:00,
2013-06-07 07:49:00,65.4,65.4,28.26,West,271,3.5,3.5,100,0.00,CLR,CLR,0.26,WeatherDisplay:10.37,2013-06-07 11:49:00,
2013-06-07 07:54:00,65.5,65.5,28.27,West,276,3.5,3.5,100,0.00,CLR,CLR,0.26,WeatherDisplay:10.37,2013-06-07 11:54:00,
2013-06-07 07:59:00,65.6,65.6,28.25,West,276,2.0,2.0,100,0.00,CLR,CLR,0.26,WeatherDisplay:10.37,2013-06-07 11:59:00,
2013-06-07 08:05:00,65.7,65.7,28.28,WNW,291,3.5,3.5,100,0.00,CLR,CLR,0.26,WeatherDisplay:10.37,2013-06-07 12:05:00,
2013-06-07 08:10:00,65.8,65.8,28.28,WNW,291,4.0,4.0,100,0.00,CLR,CLR,0.26,WeatherDisplay:10.37,2013-06-07 12:10:00,
2013-06-07 08:15:00,66.0,66.0,28.26,WNW,295,3.5,3.5,100,0.00,CLR,CLR,0.26,WeatherDisplay:10.37,2013-06-07 12:15:00,
2013-06-07 08:20:00,66.1,66.1,28.27,WNW,295,2.3,2.3,100,0.00,CLR,CLR,0.26,WeatherDisplay:10.37,2013-06-07 12:20:00,
2013-06-07 08:25:00,66.3,66.3,28.28,WNW,295,3.5,3.5,100,0.00,CLR,CLR,0.26,WeatherDisplay:10.37,2013-06-07 12:25:00,
2013-06-07 08:30:00,66.5,66.5,28.28,WNW,295,3.5,3.5,100,0.00,CLR,CLR,0.26,WeatherDisplay:10.37,2013-06-07 12:30:00,
2013-06-07 08:35:00,66.5,66.5,28.28,WNW,295,3.5,3.5,100,0.00,CLR,CLR,0.26,WeatherDisplay:10.37,2013-06-07 12:35:00,
2013-06-07 08:40:00,66.7,66.7,28.27,NW,316,5.8,5.8,100,0.00,CLR,CLR,0.26,WeatherDisplay:10.37,2013-06-07 12:40:00,
2013-06-07 08:46:00,66.6,66.6,28.28,NW,324,5.8,5.8,100,0.00,CLR,CLR,0.26,WeatherDisplay:10.37,2013-06-07 12:46:00,
2013-06-07 08:51:00,66.6,66.6,28.30,NNW,338,4.6,4.6,100,0.00,CLR,CLR,0.26,WeatherDisplay:10.37,2013-06-07 12:51:00,
2013-06-07 08:56:00,66.5,66.5,28.31,NNW,343,3.5,3.5,100,0.00,CLR,CLR,0.26,WeatherDisplay:10.37,2013-06-07 12:56:00,
2013-06-07 09:01:00,66.4,66.4,28.29,NNW,333,6.9,6.9,100,0.00,CLR,CLR,0.26,WeatherDisplay:10.37,2013-06-07 13:01:00,
2013-06-07 09:06:00,66.3,66.3,28.29,NNW,338,6.9,6.9,100,0.00,CLR,CLR,0.26,WeatherDisplay:10.37,2013-06-07 13:06:00,
2013-06-07 09:11:00,66.3,66.3,28.31,NNW,340,3.5,3.6,100,0.00,CLR,CLR,0.26,WeatherDisplay:10.37,2013-06-07 13:11:00,
2013-06-07 09:16:00,66.2,66.2,28.32,NW,320,4.6,4.6,100,0.00,CLR,CLR,0.26,WeatherDisplay:10.37,2013-06-07 13:16:00,
2013-06-07 09:22:00,66.3,66.3,28.30,NNW,333,4.6,4.6,100,0.00,CLR,CLR,0.26,WeatherDisplay:10.37,2013-06-07 13:22:00,
2013-06-07 09:27:00,66.5,66.5,28.26,NNW,335,3.5,3.5,100,0.00,CLR,CLR,0.26,WeatherDisplay:10.37,2013-06-07 13:27:00,
2013-06-07 09:32:00,66.7,66.7,28.27,NW,313,4.6,4.6,100,0.00,CLR,CLR,0.26,WeatherDisplay:10.37,2013-06-07 13:32:00,
2013-06-07 09:37:00,66.9,66.9,28.28,NW,319,4.6,4.6,100,0.00,CLR,CLR,0.26,WeatherDisplay:10.37,2013-06-07 13:37:00,
2013-06-07 09:42:00,67.0,67.0,28.27,NW,313,4.0,4.6,100,0.00,CLR,CLR,0.26,WeatherDisplay:10.37,2013-06-07 13:42:00,
2013-06-07 09:47:00,67.1,67.1,28.27,NW,314,5.8,5.8,100,0.00,CLR,CLR,0.26,WeatherDisplay:10.37,2013-06-07 13:47:00,
2013-06-07 09:52:00,67.1,67.1,28.26,NW,314,4.6,4.6,100,0.00,CLR,CLR,0.26,WeatherDisplay:10.37,2013-06-07 13:52:00,
2013-06-07 09:58:00,67.4,67.4,28.30,NW,318,6.0,6.0,100,0.00,CLR,CLR,0.26,WeatherDisplay:10.37,2013-06-07 13:58:00,
2013-06-07 10:03:00,67.4,67.4,28.28,North,8,4.6,4.6,100,0.00,CLR,CLR,0.26,WeatherDisplay:10.37,2013-06-07 14:03:00,
2013-06-07 10:08:00,67.6,67.6,28.27,NW,314,3.5,3.5,100,0.00,CLR,CLR,0.26,WeatherDisplay:10.37,2013-06-07 14:08:00,
2013-06-07 10:13:00,68.0,68.0,28.26,NW,314,3.5,3.5,100,0.00,CLR,CLR,0.26,WeatherDisplay:10.37,2013-06-07 14:13:00,
2013-06-07 10:18:00,68.0,68.0,28.27,NW,317,3.5,3.5,100,0.00,CLR,CLR,0.26,WeatherDisplay:10.37,2013-06-07 14:18:00,
2013-06-07 10:23:00,68.1,68.1,28.28,NW,317,3.0,3.0,100,0.00,CLR,CLR,0.26,WeatherDisplay:10.37,2013-06-07 14:23:00,
2013-06-07 10:28:00,68.3,68.3,28.31,NW,317,1.2,1.2,100,0.00,CLR,CLR,0.26,WeatherDisplay:10.37,2013-06-07 14:28:00,
2013-06-07 10:33:00,68.3,68.3,28.28,NW,317,3.5,3.5,100,0.00,CLR,CLR,0.26,WeatherDisplay:10.37,2013-06-07 14:33:00,
2013-06-07 10:38:00,68.4,68.4,28.29,NW,317,2.3,2.3,100,0.00,CLR,CLR,0.26,WeatherDisplay:10.37,2013-06-07 14:38:00,
2013-06-07 10:43:00,68.4,68.4,28.27,NW,317,2.3,2.3,100,0.00,CLR,CLR,0.26,WeatherDisplay:10.37,2013-06-07 14:43:00,
2013-06-07 10:48:00,68.6,68.3,28.30,NW,317,3.5,3.5,99,0.00,CLR,CLR,0.26,WeatherDisplay:10.37,2013-06-07 14:48:00,
2013-06-07 10:54:00,68.7,68.7,28.27,NW,317,1.2,1.2,100,0.00,CLR,CLR,0.26,WeatherDisplay:10.37,2013-06-07 14:54:00,
2013-06-07 10:59:00,68.9,67.4,28.26,NW,317,3.5,3.5,95,0.00,CLR,CLR,0.26,WeatherDisplay:10.37,2013-06-07 14:59:00,
2013-06-07 11:04:00,69.0,69.0,28.24,NW,317,2.3,2.3,100,0.00,CLR,CLR,0.26,WeatherDisplay:10.37,2013-06-07 15:04:00,
2013-06-07 11:09:00,69.3,69.3,28.26,NW,317,1.2,0.0,100,0.00,CLR,CLR,0.26,WeatherDisplay:10.37,2013-06-07 15:09:00,
2013-06-07 11:14:00,69.5,69.5,28.25,NW,317,3.5,3.5,100,0.00,CLR,CLR,0.26,WeatherDisplay:10.37,2013-06-07 15:14:00,
2013-06-07 11:19:00,69.6,69.6,28.23,NW,317,3.5,0.0,100,0.00,CLR,CLR,0.26,WeatherDisplay:10.37,2013-06-07 15:19:00,
2013-06-07 11:25:00,69.8,69.8,28.24,NW,317,0.0,0.0,100,0.00,CLR,CLR,0.26,WeatherDisplay:10.37,2013-06-07 15:25:00,
2013-06-07 11:30:00,69.9,69.9,28.26,NW,317,0.0,0.0,100,0.00,CLR,CLR,0.26,WeatherDisplay:10.37,2013-06-07 15:30:00,
2013-06-07 11:35:00,69.8,69.8,28.27,NW,317,0.0,0.0,100,0.00,CLR,CLR,0.26,WeatherDisplay:10.37,2013-06-07 15:35:00,
2013-06-07 11:40:00,69.7,69.7,28.28,North,0,8.1,8.1,100,0.00,CLR,CLR,0.26,WeatherDisplay:10.37,2013-06-07 15:40:00,
2013-06-07 11:45:00,69.4,69.4,28.25,North,354,4.0,4.0,100,0.00,CLR,CLR,0.26,WeatherDisplay:10.37,2013-06-07 15:45:00,
2013-06-07 11:50:00,69.5,69.5,28.25,North,354,3.5,3.5,100,0.00,CLR,CLR,0.26,WeatherDisplay:10.37,2013-06-07 15:50:00,
2013-06-07 11:55:00,69.6,69.6,28.26,North,354,3.5,3.5,100,0.00,CLR,CLR,0.26,WeatherDisplay:10.37,2013-06-07 15:55:00,
2013-06-07 12:01:00,69.5,69.5,28.25,North,354,3.5,3.5,100,0.00,CLR,CLR,0.26,WeatherDisplay:10.37,2013-06-07 16:01:00,
2013-06-07 12:06:00,69.5,69.5,28.27,North,352,3.5,3.5,100,0.00,CLR,CLR,0.26,WeatherDisplay:10.37,2013-06-07 16:06:00,
2013-06-07 12:12:00,69.5,69.5,28.25,North,352,3.5,3.5,100,0.00,CLR,CLR,0.26,WeatherDisplay:10.37,2013-06-07 16:12:00,
2013-06-07 12:17:00,69.4,69.4,28.27,North,5,4.6,4.6,100,0.00,CLR,CLR,0.26,WeatherDisplay:10.37,2013-06-07 16:17:00,
2013-06-07 12:22:00,69.0,69.0,28.25,North,4,4.6,4.6,100,0.00,CLR,CLR,0.26,WeatherDisplay:10.37,2013-06-07 16:22:00,
2013-06-07 12:27:00,68.9,68.9,28.26,NNE,17,4.0,4.0,100,0.00,CLR,CLR,0.26,WeatherDisplay:10.37,2013-06-07 16:27:00,
2013-06-07 12:32:00,68.8,68.8,28.25,NNE,15,4.6,4.6,100,0.00,CLR,CLR,0.26,WeatherDisplay:10.37,2013-06-07 16:32:00,
2013-06-07 12:38:00,68.7,68.7,28.24,NNE,14,4.6,4.6,100,0.00,CLR,CLR,0.26,WeatherDisplay:10.37,2013-06-07 16:38:00,
2013-06-07 12:43:00,68.7,68.7,28.22,North,6,4.0,4.0,100,0.00,CLR,CLR,0.26,WeatherDisplay:10.37,2013-06-07 16:43:00,
2013-06-07 12:48:00,68.9,68.9,28.21,NNW,334,3.5,3.5,100,0.00,CLR,CLR,0.26,WeatherDisplay:10.37,2013-06-07 16:48:00,
2013-06-07 12:53:00,68.9,68.9,28.23,NNW,332,3.5,3.5,100,0.00,CLR,CLR,0.26,WeatherDisplay:10.37,2013-06-07 16:53:00,
2013-06-07 12:58:00,69.1,69.1,28.23,NNW,332,3.5,3.5,100,0.00,CLR,CLR,0.26,WeatherDisplay:10.37,2013-06-07 16:58:00,
2013-06-07 13:03:00,69.2,69.2,28.24,NNW,331,5.0,5.0,100,0.00,CLR,CLR,0.26,WeatherDisplay:10.37,2013-06-07 17:03:00,
2013-06-07 13:08:00,69.2,69.2,28.23,North,0,3.5,3.5,100,0.00,CLR,CLR,0.26,WeatherDisplay:10.37,2013-06-07 17:08:00,
2013-06-07 13:14:00,69.3,69.3,28.21,North,359,4.0,4.0,100,0.00,CLR,CLR,0.26,WeatherDisplay:10.37,2013-06-07 17:14:00,
2013-06-07 13:19:00,69.5,69.5,28.21,North,359,3.5,3.5,100,0.00,CLR,CLR,0.26,WeatherDisplay:10.37,2013-06-07 17:19:00,
2013-06-07 13:24:00,69.5,69.5,28.22,North,0,4.6,4.6,100,0.00,CLR,CLR,0.26,WeatherDisplay:10.37,2013-06-07 17:24:00,
2013-06-07 13:29:00,69.6,69.6,28.22,North,0,2.3,2.3,100,0.00,CLR,CLR,0.26,WeatherDisplay:10.37,2013-06-07 17:29:00,
2013-06-07 13:34:00,69.8,69.8,28.21,North,0,3.5,3.5,100,0.00,CLR,CLR,0.26,WeatherDisplay:10.37,2013-06-07 17:34:00,
2013-06-07 13:39:00,69.9,69.9,28.20,North,0,2.3,2.3,100,0.00,CLR,CLR,0.26,WeatherDisplay:10.37,2013-06-07 17:39:00,
2013-06-07 13:45:00,70.1,70.1,28.22,North,0,3.5,3.5,100,0.00,CLR,CLR,0.26,WeatherDisplay:10.37,2013-06-07 17:45:00,
2013-06-07 13:50:00,70.2,70.2,28.21,North,0,4.6,4.6,100,0.00,CLR,CLR,0.26,WeatherDisplay:10.37,2013-06-07 17:50:00,
2013-06-07 13:55:00,70.3,70.3,28.21,NNW,335,4.0,4.0,100,0.00,CLR,CLR,0.26,WeatherDisplay:10.37,2013-06-07 17:55:00,
2013-06-07 14:00:00,70.6,70.6,28.19,NNW,335,4.6,4.6,100,0.00,CLR,CLR,0.26,WeatherDisplay:10.37,2013-06-07 18:00:00,
2013-06-07 14:05:00,70.6,70.6,28.19,North,7,8.1,8.1,100,0.00,CLR,CLR,0.26,WeatherDisplay:10.37,2013-06-07 18:05:00,
2013-06-07 14:11:00,70.8,70.8,28.20,NW,322,6.9,6.9,100,0.00,CLR,CLR,0.26,WeatherDisplay:10.37,2013-06-07 18:11:00,
2013-06-07 14:16:00,70.7,70.7,28.19,West,279,4.6,4.6,100,0.00,CLR,CLR,0.26,WeatherDisplay:10.37,2013-06-07 18:16:00,
2013-06-07 14:22:00,70.8,70.8,28.20,North,352,5.8,5.8,100,0.00,CLR,CLR,0.26,WeatherDisplay:10.37,2013-06-07 18:22:00,
2013-06-07 14:27:00,70.9,70.9,28.20,NW,315,3.5,3.5,100,0.00,CLR,CLR,0.26,WeatherDisplay:10.37,2013-06-07 18:27:00,
2013-06-07 14:32:00,71.1,71.1,28.20,NW,316,3.5,3.5,100,0.00,CLR,CLR,0.26,WeatherDisplay:10.37,2013-06-07 18:32:00,
2013-06-07 14:37:00,71.5,71.5,28.19,NW,316,2.3,2.3,100,0.00,CLR,CLR,0.26,WeatherDisplay:10.37,2013-06-07 18:37:00,
2013-06-07 14:42:00,71.6,71.6,28.20,NW,316,3.5,3.5,100,0.00,CLR,CLR,0.26,WeatherDisplay:10.37,2013-06-07 18:42:00,
2013-06-07 14:47:00,71.9,71.9,28.20,NW,316,0.0,0.0,100,0.00,CLR,CLR,0.26,WeatherDisplay:10.37,2013-06-07 18:47:00,
2013-06-07 14:53:00,72.1,72.1,28.20,NW,316,1.2,1.2,100,0.00,CLR,CLR,0.26,WeatherDisplay:10.37,2013-06-07 18:53:00,
2013-06-07 14:58:00,72.2,72.2,28.20,NW,316,3.5,3.5,100,0.00,CLR,CLR,0.26,WeatherDisplay:10.37,2013-06-07 18:58:00,
2013-06-07 15:03:00,72.3,72.3,28.20,NW,315,0.0,0.0,100,0.00,CLR,CLR,0.26,WeatherDisplay:10.37,2013-06-07 19:03:00,
2013-06-07 15:09:00,72.6,72.6,28.21,NW,316,0.0,0.0,100,0.00,CLR,CLR,0.26,WeatherDisplay:10.37,2013-06-07 19:09:00,
2013-06-07 15:14:00,72.7,72.7,28.20,NW,317,0.0,0.0,100,0.00,CLR,CLR,0.26,WeatherDisplay:10.37,2013-06-07 19:14:00,
2013-06-07 15:19:00,72.7,72.7,28.21,NW,317,2.3,2.3,100,0.00,CLR,CLR,0.26,WeatherDisplay:10.37,2013-06-07 19:19:00,
2013-06-07 15:24:00,73.0,73.0,28.21,NW,317,2.0,2.0,100,0.00,CLR,CLR,0.26,WeatherDisplay:10.37,2013-06-07 19:24:00,
2013-06-07 15:30:00,73.1,73.1,28.21,NW,317,0.0,0.0,100,0.00,CLR,CLR,0.26,WeatherDisplay:10.37,2013-06-07 19:30:00,
2013-06-07 15:35:00,73.3,73.3,28.19,NW,317,3.5,3.5,100,0.00,CLR,CLR,0.26,WeatherDisplay:10.37,2013-06-07 19:35:00,
2013-06-07 15:40:00,73.4,73.4,28.21,NW,317,1.2,1.2,100,0.00,CLR,CLR,0.26,WeatherDisplay:10.37,2013-06-07 19:40:00,
2013-06-07 15:45:00,73.5,73.5,28.19,NW,317,3.5,3.5,100,0.00,CLR,CLR,0.26,WeatherDisplay:10.37,2013-06-07 19:45:00,
2013-06-07 15:51:00,73.5,73.5,28.20,NW,317,3.5,3.5,100,0.00,CLR,CLR,0.26,WeatherDisplay:10.37,2013-06-07 19:51:00,
2013-06-07 15:56:00,73.6,73.6,28.23,NW,317,0.0,0.0,100,0.00,CLR,CLR,0.26,WeatherDisplay:10.37,2013-06-07 19:56:00,
2013-06-07 16:01:00,73.8,73.8,28.21,NW,317,1.2,0.0,100,0.00,CLR,CLR,0.26,WeatherDisplay:10.37,2013-06-07 20:01:00,
2013-06-07 16:06:00,73.7,73.7,28.21,NW,317,2.3,2.3,100,0.00,CLR,CLR,0.26,WeatherDisplay:10.37,2013-06-07 20:06:00,
2013-06-07 16:12:00,73.7,73.7,28.21,NW,317,3.5,3.5,100,0.00,CLR,CLR,0.26,WeatherDisplay:10.37,2013-06-07 20:12:00,
2013-06-07 16:17:00,73.5,73.2,28.21,North,358,2.3,2.3,99,0.00,CLR,CLR,0.26,WeatherDisplay:10.37,2013-06-07 20:17:00,
2013-06-07 16:22:00,73.5,72.9,28.21,North,358,3.5,3.5,98,0.00,CLR,CLR,0.26,WeatherDisplay:10.37,2013-06-07 20:22:00,
2013-06-07 16:27:00,73.5,72.9,28.20,North,358,1.2,0.0,98,0.00,CLR,CLR,0.26,WeatherDisplay:10.37,2013-06-07 20:27:00,
2013-06-07 16:33:00,73.6,73.0,28.21,North,358,3.5,3.5,98,0.00,CLR,CLR,0.26,WeatherDisplay:10.37,2013-06-07 20:33:00,
2013-06-07 16:38:00,73.8,72.9,28.23,North,358,1.2,1.2,97,0.00,CLR,CLR,0.26,WeatherDisplay:10.37,2013-06-07 20:38:00,
2013-06-07 16:44:00,74.2,73.6,28.23,North,358,1.2,1.2,98,0.00,CLR,CLR,0.26,WeatherDisplay:10.37,2013-06-07 20:44:00,
2013-06-07 16:49:00,74.1,73.5,28.23,North,358,3.5,3.5,98,0.00,CLR,CLR,0.26,WeatherDisplay:10.37,2013-06-07 20:49:00,
2013-06-07 16:54:00,73.9,73.3,28.21,North,358,3.5,3.5,98,0.01,RA,RA,0.27,WeatherDisplay:10.37,2013-06-07 20:54:00,
2013-06-07 17:00:00,73.0,72.4,28.24,WNW,300,11.5,11.5,98,0.01,RA,RA,0.27,WeatherDisplay:10.37,2013-06-07 21:00:00,
2013-06-07 17:05:00,72.5,71.9,28.21,West,264,5.0,5.0,98,0.01,,,0.27,WeatherDisplay:10.37,2013-06-07 21:05:00,
2013-06-07 17:10:00,72.0,72.0,28.22,NW,309,6.9,6.9,100,0.02,RA,RA,0.28,WeatherDisplay:10.37,2013-06-07 21:10:00,
2013-06-07 17:15:00,72.0,72.0,28.22,NW,309,2.3,2.3,100,0.02,RA,RA,0.28,WeatherDisplay:10.37,2013-06-07 21:15:00,
2013-06-07 17:21:00,72.1,72.1,28.22,NW,309,2.3,2.3,100,0.02,CLR,CLR,0.28,WeatherDisplay:10.37,2013-06-07 21:21:00,
2013-06-07 17:26:00,72.4,72.4,28.23,West,279,3.5,3.5,100,0.02,CLR,CLR,0.28,WeatherDisplay:10.37,2013-06-07 21:26:00,
2013-06-07 17:31:00,72.4,72.4,28.22,West,279,0.0,0.5,100,0.02,CLR,CLR,0.28,WeatherDisplay:10.37,2013-06-07 21:31:00,
2013-06-07 17:37:00,72.3,72.3,28.21,West,279,3.5,3.5,100,0.02,CLR,CLR,0.28,WeatherDisplay:10.37,2013-06-07 21:37:00,
2013-06-07 17:42:00,71.9,71.9,28.23,West,266,3.5,3.5,100,0.02,CLR,CLR,0.28,WeatherDisplay:10.37,2013-06-07 21:42:00,
2013-06-07 17:47:00,71.8,71.8,28.23,SW,227,4.6,4.6,100,0.02,CLR,CLR,0.28,WeatherDisplay:10.37,2013-06-07 21:47:00,
2013-06-07 17:53:00,72.0,72.0,28.24,SW,227,3.5,3.5,100,0.02,CLR,CLR,0.28,WeatherDisplay:10.37,2013-06-07 21:53:00,
2013-06-07 17:58:00,72.4,72.4,28.23,SW,226,1.2,1.2,100,0.01,CLR,CLR,0.28,WeatherDisplay:10.37,2013-06-07 21:58:00,
2013-06-07 18:03:00,72.9,72.9,28.15,NNW,335,5.8,5.8,100,0.01,CLR,CLR,0.28,WeatherDisplay:10.37,2013-06-07 22:03:00,
2013-06-07 18:09:00,72.9,72.9,28.15,SSW,204,3.5,3.5,100,0.00,CLR,CLR,0.28,WeatherDisplay:10.37,2013-06-07 22:09:00,
2013-06-07 18:14:00,72.8,72.8,28.15,SSW,205,1.2,0.0,100,0.00,CLR,CLR,0.28,WeatherDisplay:10.37,2013-06-07 22:14:00,
2013-06-07 18:19:00,72.7,72.7,28.15,WSW,238,5.8,5.8,100,0.00,CLR,CLR,0.28,WeatherDisplay:10.37,2013-06-07 22:19:00,
2013-06-07 18:24:00,72.6,72.6,28.15,NW,312,4.6,4.6,100,0.00,CLR,CLR,0.28,WeatherDisplay:10.37,2013-06-07 22:24:00,
2013-06-07 18:30:00,72.4,72.4,28.15,NW,311,4.6,4.6,100,0.00,CLR,CLR,0.28,WeatherDisplay:10.37,2013-06-07 22:30:00,
2013-06-07 18:35:00,72.3,72.0,28.15,NW,305,7.0,7.0,99,0.00,CLR,CLR,0.28,WeatherDisplay:10.37,2013-06-07 22:35:00,
2013-06-07 18:40:00,72.1,71.8,28.16,NNW,342,6.9,6.9,99,0.00,CLR,CLR,0.28,WeatherDisplay:10.37,2013-06-07 22:40:00,
2013-06-07 18:45:00,72.0,71.7,28.17,NNW,342,4.6,4.6,99,0.00,CLR,CLR,0.28,WeatherDisplay:10.37,2013-06-07 22:45:00,
2013-06-07 18:50:00,71.8,71.5,28.17,NW,322,1.2,1.2,99,0.00,CLR,CLR,0.28,WeatherDisplay:10.37,2013-06-07 22:50:00,
2013-06-07 18:56:00,71.7,71.4,28.17,NW,322,0.0,0.0,99,0.00,CLR,CLR,0.28,WeatherDisplay:10.37,2013-06-07 22:56:00,
2013-06-07 19:01:00,71.7,71.7,28.17,NW,322,0.0,0.0,100,0.00,CLR,CLR,0.28,WeatherDisplay:10.37,2013-06-07 23:01:00,
2013-06-07 19:06:00,71.6,71.6,28.17,NW,322,1.2,1.2,100,0.00,CLR,CLR,0.28,WeatherDisplay:10.37,2013-06-07 23:06:00,
2013-06-07 19:11:00,71.5,71.5,28.18,NW,321,2.0,2.0,100,0.00,CLR,CLR,0.28,WeatherDisplay:10.37,2013-06-07 23:11:00,
2013-06-07 19:17:00,71.6,71.6,28.18,WSW,238,3.5,3.5,100,0.00,CLR,CLR,0.28,WeatherDisplay:10.37,2013-06-07 23:17:00,
2013-06-07 19:22:00,71.5,70.9,28.18,SSW,199,1.2,1.2,98,0.00,CLR,CLR,0.28,WeatherDisplay:10.37,2013-06-07 23:22:00,
2013-06-07 19:27:00,71.4,70.5,28.18,East,85,3.5,3.5,97,0.00,CLR,CLR,0.28,WeatherDisplay:10.37,2013-06-07 23:27:00,
2013-06-07 19:32:00,71.3,70.4,28.18,NW,307,1.2,1.3,97,0.00,CLR,CLR,0.28,WeatherDisplay:10.37,2013-06-07 23:32:00,
2013-06-07 19:37:00,71.1,69.9,28.19,NW,321,4.0,4.0,96,0.00,CLR,CLR,0.28,WeatherDisplay:10.37,2013-06-07 23:37:00,
2013-06-07 19:42:00,71.0,69.8,28.19,WNW,302,2.3,2.3,96,0.00,CLR,CLR,0.28,WeatherDisplay:10.37,2013-06-07 23:42:00,
2013-06-07 19:47:00,70.9,69.7,28.19,WNW,303,2.3,2.3,96,0.00,CLR,CLR,0.28,WeatherDisplay:10.37,2013-06-07 23:47:00,
2013-06-07 19:53:00,70.6,69.4,28.19,SW,231,3.5,3.5,96,0.00,CLR,CLR,0.28,WeatherDisplay:10.37,2013-06-07 23:53:00,
2013-06-07 19:58:00,70.3,68.8,28.19,NW,324,8.0,8.0,95,0.00,CLR,CLR,0.28,WeatherDisplay:10.37,2013-06-07 23:58:00,
2013-06-07 20:03:00,70.2,68.4,28.20,WNW,293,6.9,6.9,94,0.00,CLR,CLR,0.28,WeatherDisplay:10.37,2013-06-08 00:03:00,
2013-06-07 20:09:00,69.9,68.1,28.20,NW,326,8.1,8.1,94,0.00,CLR,CLR,0.28,WeatherDisplay:10.37,2013-06-08 00:09:00,
2013-06-07 20:14:00,69.7,67.9,28.21,SW,236,3.5,3.5,94,0.00,CLR,CLR,0.28,WeatherDisplay:10.37,2013-06-08 00:14:00,
2013-06-07 20:19:00,69.6,67.8,28.22,NW,326,3.5,3.5,94,0.00,CLR,CLR,0.28,WeatherDisplay:10.37,2013-06-08 00:19:00,
2013-06-07 20:24:00,69.5,67.4,28.22,WNW,303,5.8,5.8,93,0.00,CLR,CLR,0.28,WeatherDisplay:10.37,2013-06-08 00:24:00,
2013-06-07 20:29:00,69.3,67.2,28.22,WNW,290,5.8,5.8,93,0.00,CLR,CLR,0.28,WeatherDisplay:10.37,2013-06-08 00:29:00,
2013-06-07 20:35:00,69.3,66.2,28.23,West,273,5.0,5.0,90,0.00,CLR,CLR,0.28,WeatherDisplay:10.37,2013-06-08 00:35:00,
2013-06-07 20:40:00,69.1,66.0,28.23,West,267,3.5,3.5,90,0.00,CLR,CLR,0.28,WeatherDisplay:10.37,2013-06-08 00:40:00,
2013-06-07 20:45:00,69.0,66.3,28.24,South,177,3.5,3.5,91,0.00,CLR,CLR,0.28,WeatherDisplay:10.37,2013-06-08 00:45:00,
2013-06-07 20:50:00,68.8,66.1,28.24,SSW,192,3.0,3.0,91,0.00,CLR,CLR,0.28,WeatherDisplay:10.37,2013-06-08 00:50:00,
2013-06-07 20:55:00,68.6,65.9,28.24,SW,223,2.3,2.3,91,0.00,CLR,CLR,0.28,WeatherDisplay:10.37,2013-06-08 00:55:00,
2013-06-07 21:01:00,68.5,65.8,28.25,SW,223,2.3,2.3,91,0.00,CLR,CLR,0.28,WeatherDisplay:10.37,2013-06-08 01:01:00,
2013-06-07 21:06:00,68.3,65.6,28.24,WSW,240,2.3,2.3,91,0.00,CLR,CLR,0.28,WeatherDisplay:10.37,2013-06-08 01:06:00,
2013-06-07 21:11:00,68.2,65.5,28.25,WNW,292,2.3,2.3,91,0.00,CLR,CLR,0.28,WeatherDisplay:10.37,2013-06-08 01:11:00,
2013-06-07 21:17:00,68.2,65.8,28.25,West,261,3.5,3.5,92,0.00,CLR,CLR,0.28,WeatherDisplay:10.37,2013-06-08 01:17:00,
2013-06-07 21:22:00,68.1,65.7,28.25,West,261,1.2,0.0,92,0.00,CLR,CLR,0.28,WeatherDisplay:10.37,2013-06-08 01:22:00,
2013-06-07 21:27:00,67.9,65.8,28.25,SW,222,3.5,3.5,93,0.00,CLR,CLR,0.28,WeatherDisplay:10.37,2013-06-08 01:27:00,
2013-06-07 21:32:00,67.7,65.6,28.25,West,261,3.5,3.5,93,0.00,CLR,CLR,0.28,WeatherDisplay:10.37,2013-06-08 01:32:00,
2013-06-07 21:38:00,67.6,65.5,28.26,WSW,255,3.5,3.5,93,0.00,CLR,CLR,0.28,WeatherDisplay:10.37,2013-06-08 01:38:00,
2013-06-07 21:43:00,67.5,65.7,28.26,NW,311,3.5,3.5,94,0.00,CLR,CLR,0.28,WeatherDisplay:10.37,2013-06-08 01:43:00,
2013-06-07 21:48:00,67.3,65.8,28.26,NW,325,8.1,8.1,95,0.00,CLR,CLR,0.28,WeatherDisplay:10.37,2013-06-08 01:48:00,
2013-06-07 21:53:00,67.2,64.5,28.26,NW,311,5.8,5.8,91,0.00,CLR,CLR,0.28,WeatherDisplay:10.37,2013-06-08 01:53:00,
2013-06-07 21:59:00,67.2,65.1,28.26,NW,309,4.6,4.6,93,0.00,CLR,CLR,0.28,WeatherDisplay:10.37,2013-06-08 01:59:00,
2013-06-07 22:04:00,67.1,64.7,28.27,NW,309,2.3,0.0,92,0.00,CLR,CLR,0.28,WeatherDisplay:10.37,2013-06-08 02:04:00,
2013-06-07 22:09:00,67.0,65.2,28.27,NW,309,1.2,1.6,94,0.00,CLR,CLR,0.28,WeatherDisplay:10.37,2013-06-08 02:09:00,
2013-06-07 22:15:00,66.8,65.6,28.28,NW,309,3.0,3.0,96,0.00,CLR,CLR,0.28,WeatherDisplay:10.37,2013-06-08 02:15:00,
2013-06-07 22:20:00,66.6,65.1,28.27,NW,309,2.3,2.3,95,0.00,CLR,CLR,0.28,WeatherDisplay:10.37,2013-06-08 02:20:00,
2013-06-07 22:25:00,66.5,64.7,28.28,NW,309,3.5,3.5,94,0.00,CLR,CLR,0.28,WeatherDisplay:10.37,2013-06-08 02:25:00,
2013-06-07 22:31:00,66.4,64.6,28.28,WNW,297,2.3,2.3,94,0.00,CLR,CLR,0.28,WeatherDisplay:10.37,2013-06-08 02:31:00,
2013-06-07 22:36:00,66.2,64.7,28.28,WNW,297,3.5,3.5,95,0.00,CLR,CLR,0.28,WeatherDisplay:10.37,2013-06-08 02:36:00,
2013-06-07 22:41:00,66.1,64.9,28.29,WNW,297,2.3,2.3,96,0.00,CLR,CLR,0.28,WeatherDisplay:10.37,2013-06-08 02:41:00,
2013-06-07 22:46:00,66.0,64.8,28.29,WNW,297,4.0,4.0,96,0.00,CLR,CLR,0.28,WeatherDisplay:10.37,2013-06-08 02:46:00,
2013-06-07 22:52:00,65.9,64.7,28.29,WNW,297,3.5,3.5,96,0.00,CLR,CLR,0.28,WeatherDisplay:10.37,2013-06-08 02:52:00,
2013-06-07 22:57:00,65.7,64.8,28.29,WNW,297,5.0,5.0,97,0.00,CLR,CLR,0.28,WeatherDisplay:10.37,2013-06-08 02:57:00,
2013-06-07 23:02:00,65.7,65.1,28.29,West,279,5.0,5.0,98,0.00,CLR,CLR,0.28,WeatherDisplay:10.37,2013-06-08 03:02:00,
2013-06-07 23:08:00,65.5,64.9,28.30,West,276,3.5,3.5,98,0.00,CLR,CLR,0.28,WeatherDisplay:10.37,2013-06-08 03:08:00,
2013-06-07 23:13:00,65.4,65.1,28.30,West,272,3.5,3.5,99,0.00,CLR,CLR,0.28,WeatherDisplay:10.37,2013-06-08 03:13:00,
2013-06-07 23:18:00,65.2,64.9,28.29,West,272,3.5,3.5,99,0.00,CLR,CLR,0.28,WeatherDisplay:10.37,2013-06-08 03:18:00,
2013-06-07 23:24:00,65.1,65.1,28.30,West,278,3.5,3.5,100,0.00,CLR,CLR,0.28,WeatherDisplay:10.37,2013-06-08 03:24:00,
2013-06-07 23:29:00,64.9,64.9,28.30,West,280,2.3,2.3,100,0.00,CLR,CLR,0.28,WeatherDisplay:10.37,2013-06-08 03:29:00,
2013-06-07 23:34:00,64.9,64.9,28.30,WNW,292,3.5,3.5,100,0.00,CLR,CLR,0.28,WeatherDisplay:10.37,2013-06-08 03:34:00,
2013-06-07 23:39:00,64.9,64.9,28.30,WNW,292,3.5,3.5,100,0.00,CLR,CLR,0.28,WeatherDisplay:10.37,2013-06-08 03:39:00,
2013-06-07 23:44:00,64.9,64.6,28.30,WNW,292,3.5,3.5,99,0.00,CLR,CLR,0.28,WeatherDisplay:10.37,2013-06-08 03:44:00,
2013-06-07 23:50:00,64.9,64.6,28.30,WNW,292,3.5,3.5,99,0.00,CLR,CLR,0.28,WeatherDisplay:10.37,2013-06-08 03:50:00,
2013-06-07 23:55:00,64.8,64.2,28.31,West,274,2.3,2.3,98,0.00,CLR,CLR,0.28,WeatherDisplay:10.37,2013-06-08 03:55:00,